Back to catalog

OV2-1

AliveMilitaryLEO
NORAD 1641·PAYLOAD·🇺🇸 United States

Launched Oct 15, 1965 from Cape Canaveral Space Force Station

Loading…

Next Passes (next 24 hours)

TLE

FreshSource: Space-Track

Epoch: Sep 14, 2026, 12:37 UTC

1 01641U 65082C   26257.52590752  .00000192  00000-0  36394-4 0  9991
2 01641  32.2970  61.7835 0018908 276.5957  83.2537 14.54846178230319

Track OV2-1 in real time with AllMySat

Download on the App Store